| time (UTC) | temp F | wind direction | speed MPH | gust MPH | rain 1hr in | rain 24hr in | rain mn in | humidity % | barometer mb |
| 20260510151434 | 87 | 243 | 3.0 | 7.0 | 0.00 | 0.01 | 0.00 | 57 | 1016.3 |
| 20260510150939 | 86 | 245 | 1.0 | 8.0 | 0.00 | 0.01 | 0.00 | 57 | 1016.3 |
| 20260510150433 | 86 | 172 | 3.0 | 9.0 | 0.00 | 0.01 | 0.00 | 57 | 1016.3 |
| 20260510145937 | 86 | 214 | 4.0 | 9.0 | 0.00 | 0.01 | 0.00 | 58 | 1016.3 |
| 20260510145440 | 85 | 321 | 3.0 | 7.0 | 0.00 | 0.01 | 0.00 | 60 | 1016.3 |
| 20260510144935 | 85 | 245 | 4.0 | 7.0 | 0.00 | 0.01 | 0.00 | 61 | 1016.3 |
| 20260510144439 | 85 | 282 | 3.0 | 9.0 | 0.00 | 0.01 | 0.00 | 62 | 1016.1 |
| 20260510143935 | 84 | 198 | 5.0 | 9.0 | 0.00 | 0.01 | 0.00 | 61 | 1016.1 |
| 20260510143440 | 84 | 215 | 4.0 | 9.0 | 0.00 | 0.01 | 0.00 | 63 | 1016.1 |
| 20260510142936 | 84 | 255 | 3.0 | 10.0 | 0.00 | 0.01 | 0.00 | 63 | 1016.0 |
| 20260510142450 | 83 | 209 | 3.0 | 10.0 | 0.00 | 0.01 | 0.00 | 64 | 1016.0 |
| 20260510141954 | 83 | 279 | 3.0 | 7.0 | 0.00 | 0.01 | 0.00 | 65 | 1016.0 |
| 20260510141433 | 82 | 143 | 2.0 | 10.0 | 0.00 | 0.01 | 0.00 | 67 | 1015.9 |
| 20260510140936 | 82 | 228 | 5.0 | 10.0 | 0.00 | 0.01 | 0.00 | 69 | 1015.9 |
| 20260510140433 | 81 | 234 | 3.0 | 5.0 | 0.00 | 0.01 | 0.00 | 71 | 1015.9 |
| 20260510135938 | 81 | 217 | 3.0 | 5.0 | 0.00 | 0.01 | 0.00 | 71 | 1016.0 |
| 20260510135435 | 80 | 227 | 3.0 | 5.0 | 0.00 | 0.01 | 0.00 | 74 | 1016.0 |
| 20260510134937 | 80 | 202 | 2.0 | 5.0 | 0.00 | 0.01 | 0.00 | 77 | 1016.0 |
| 20260510134440 | 80 | 212 | 3.0 | 5.0 | 0.00 | 0.01 | 0.00 | 79 | 1016.1 |
| 20260510133952 | 79 | 232 | 1.0 | 4.0 | 0.00 | 0.01 | 0.00 | 80 | 1016.1 |
| 20260510133449 | 79 | 181 | 2.0 | 4.0 | 0.00 | 0.01 | 0.00 | 80 | 1016.1 |
| 20260510132933 | 79 | 250 | 2.0 | 6.0 | 0.00 | 0.01 | 0.00 | 81 | 1015.9 |
| 20260510132437 | 79 | 222 | 3.0 | 6.0 | 0.00 | 0.01 | 0.00 | 81 | 1015.9 |
| 20260510131938 | 78 | 264 | 2.0 | 4.0 | 0.00 | 0.01 | 0.00 | 84 | 1015.9 |
| 20260510131442 | 78 | 250 | 2.0 | 4.0 | 0.00 | 0.01 | 0.00 | 87 | 1015.8 |
| 20260510130948 | 78 | 241 | 2.0 | 4.0 | 0.00 | 0.01 | 0.00 | 89 | 1015.8 |
| 20260510130431 | 77 | 270 | 2.0 | 6.0 | 0.00 | 0.01 | 0.00 | 91 | 1015.8 |
| 20260510125940 | 77 | 250 | 3.0 | 6.0 | 0.00 | 0.01 | 0.00 | 93 | 1015.9 |
| 20260510125436 | 77 | 262 | 1.0 | 4.0 | 0.00 | 0.01 | 0.00 | 95 | 1015.9 |
| 20260510124934 | 76 | 286 | 1.0 | 4.0 | 0.00 | 0.01 | 0.00 | 96 | 1015.9 |
| 20260510124451 | 76 | 290 | 2.0 | 4.0 | 0.00 | 0.01 | 0.00 | 99 | 1015.3 |
| 20260510123936 | 76 | 247 | 2.0 | 4.0 | 0.00 | 0.01 | 0.00 | 100 | 1015.3 |
| 20260510123433 | 75 | 211 | 0.0 | 4.0 | 0.00 | 0.01 | 0.00 | 100 | 1015.3 |
| 20260510122936 | 75 | 199 | 0.0 | 5.0 | 0.00 | 0.01 | 0.00 | 100 | 1015.1 |
| 20260510122453 | 75 | 224 | 1.0 | 5.0 | 0.00 | 0.01 | 0.00 | 100 | 1015.1 |
| 20260510121937 | 75 | 231 | 0.0 | 4.0 | 0.00 | 0.01 | 0.00 | 100 | 1015.1 |
| 20260510121434 | 75 | 195 | 0.0 | 5.0 | 0.00 | 0.01 | 0.00 | 100 | 1014.8 |
| 20260510120935 | 75 | 190 | 1.0 | 5.0 | 0.00 | 0.01 | 0.00 | 100 | 1014.8 |
| 20260510120438 | 75 | 209 | 0.0 | 3.0 | 0.00 | 0.01 | 0.00 | 100 | 1014.8 |
| 20260510115933 | 75 | 217 | 0.0 | 4.0 | 0.00 | 0.01 | 0.00 | 100 | 1014.7 |
| 20260510115435 | 74 | 183 | 2.0 | 4.0 | 0.00 | 0.01 | 0.00 | 100 | 1014.7 |
| 20260510114936 | 74 | 164 | 1.0 | 2.0 | 0.00 | 0.01 | 0.00 | 100 | 1014.7 |
| 20260510114439 | 74 | 201 | 0.0 | 2.0 | 0.00 | 0.01 | 0.00 | 100 | 1014.6 |
| 20260510113934 | 74 | 201 | 0.0 | 3.0 | 0.00 | 0.01 | 0.00 | 100 | 1014.6 |
| 20260510113439 | 74 | 194 | 0.0 | 3.0 | 0.00 | 0.01 | 0.00 | 100 | 1014.6 |
| 20260510112936 | 74 | 200 | 1.0 | 3.0 | 0.00 | 0.01 | 0.00 | 100 | 1014.3 |
| 20260510112432 | 74 | 224 | 0.0 | 3.0 | 0.00 | 0.01 | 0.00 | 100 | 1014.3 |
| 20260510111934 | 74 | 216 | 1.0 | 3.0 | 0.00 | 0.01 | 0.00 | 100 | 1014.3 |
| 20260510111436 | 74 | 203 | 0.0 | 0.0 | 0.00 | 0.01 | 0.00 | 100 | 1014.3 |
| 20260510110940 | 74 | 202 | 0.0 | 0.0 | 0.00 | 0.01 | 0.00 | 100 | 1014.3 |
| 20260510110436 | 74 | 202 | 0.0 | 0.0 | 0.00 | 0.01 | 0.00 | 100 | 1014.3 |
| 20260510105935 | 74 | 203 | 0.0 | 0.0 | 0.00 | 0.01 | 0.00 | 100 | 1014.1 |
| 20260510105432 | 74 | 202 | 0.0 | 1.0 | 0.00 | 0.01 | 0.00 | 100 | 1014.1 |
| 20260510104950 | 74 | 202 | 0.0 | 2.0 | 0.00 | 0.01 | 0.00 | 100 | 1014.1 |
| 20260510104434 | 74 | 203 | 0.0 | 3.0 | 0.00 | 0.01 | 0.00 | 100 | 1013.8 |
| 20260510103939 | 74 | 214 | 0.0 | 3.0 | 0.00 | 0.01 | 0.00 | 100 | 1013.8 |
| 20260510103433 | 74 | 187 | 1.0 | 4.0 | 0.00 | 0.01 | 0.00 | 100 | 1013.8 |
| 20260510102957 | 74 | 195 | 1.0 | 4.0 | 0.00 | 0.01 | 0.00 | 100 | 1013.8 |
| 20260510102432 | 74 | 200 | 1.0 | 3.0 | 0.00 | 0.01 | 0.00 | 100 | 1013.8 |
| 20260510101935 | 74 | 229 | 0.0 | 2.0 | 0.00 | 0.01 | 0.00 | 100 | 1013.8 |
| 20260510101458 | 74 | 229 | 0.0 | 2.0 | 0.00 | 0.01 | 0.00 | 100 | 1013.7 |
| 20260510100934 | 74 | 229 | 0.0 | 2.0 | 0.00 | 0.01 | 0.00 | 100 | 1013.7 |
| 20260510100452 | 74 | 229 | 1.0 | 2.0 | 0.00 | 0.01 | 0.00 | 100 | 1013.7 |
| 20260510095949 | 74 | 229 | 1.0 | 2.0 | 0.00 | 0.01 | 0.00 | 100 | 1013.7 |
| 20260510095433 | 74 | 229 | 0.0 | 2.0 | 0.00 | 0.01 | 0.00 | 100 | 1013.7 |
| 20260510094936 | 74 | 229 | 1.0 | 2.0 | 0.00 | 0.01 | 0.00 | 100 | 1013.7 |
| 20260510094440 | 74 | 229 | 1.0 | 3.0 | 0.00 | 0.01 | 0.00 | 100 | 1013.5 |
| 20260510093955 | 74 | 231 | 1.0 | 3.0 | 0.00 | 0.01 | 0.00 | 100 | 1013.5 |
| 20260510093437 | 74 | 213 | 1.0 | 2.0 | 0.00 | 0.01 | 0.00 | 100 | 1013.5 |
| 20260510092939 | 74 | 213 | 0.0 | 3.0 | 0.00 | 0.01 | 0.00 | 100 | 1013.3 |
| 20260510092436 | 74 | 225 | 0.0 | 3.0 | 0.00 | 0.01 | 0.00 | 100 | 1013.3 |
| 20260510091939 | 74 | 174 | 0.0 | 3.0 | 0.00 | 0.01 | 0.00 | 100 | 1013.3 |
| 20260510091436 | 74 | 174 | 0.0 | 3.0 | 0.00 | 0.01 | 0.00 | 100 | 1013.2 |
| 20260510090936 | 74 | 183 | 0.0 | 2.0 | 0.00 | 0.01 | 0.00 | 100 | 1013.2 |
| 20260510090450 | 74 | 183 | 1.0 | 3.0 | 0.00 | 0.01 | 0.00 | 100 | 1013.2 |
| 20260510085933 | 74 | 183 | 1.0 | 3.0 | 0.00 | 0.01 | 0.00 | 100 | 1013.2 |
| 20260510085439 | 74 | 162 | 0.0 | 1.0 | 0.00 | 0.01 | 0.00 | 100 | 1013.2 |
| 20260510084934 | 74 | 288 | 0.0 | 0.0 | 0.00 | 0.01 | 0.00 | 100 | 1013.2 |
| 20260510084439 | 74 | 288 | 0.0 | 0.0 | 0.00 | 0.01 | 0.00 | 100 | 1013.2 |
| 20260510083946 | 74 | 288 | 0.0 | 0.0 | 0.00 | 0.01 | 0.00 | 99 | 1013.2 |
| 20260510083449 | 74 | 288 | 0.0 | 0.0 | 0.00 | 0.01 | 0.00 | 99 | 1013.2 |
| 20260510082932 | 74 | 288 | 0.0 | 0.0 | 0.00 | 0.01 | 0.00 | 99 | 1013.1 |
| 20260510082436 | 74 | 288 | 0.0 | 0.0 | 0.00 | 0.01 | 0.00 | 99 | 1013.1 |
| 20260510081933 | 74 | 288 | 0.0 | 0.0 | 0.00 | 0.01 | 0.00 | 99 | 1013.1 |
| 20260510081439 | 74 | 288 | 0.0 | 0.0 | 0.00 | 0.01 | 0.00 | 98 | 1013.0 |
| 20260510080937 | 74 | 288 | 0.0 | 0.0 | 0.00 | 0.01 | 0.00 | 98 | 1013.0 |
| 20260510080450 | 74 | 288 | 0.0 | 0.0 | 0.00 | 0.01 | 0.00 | 98 | 1013.0 |
| 20260510075935 | 74 | 288 | 0.0 | 0.0 | 0.00 | 0.01 | 0.00 | 98 | 1013.0 |
| 20260510075438 | 74 | 288 | 0.0 | 0.0 | 0.00 | 0.01 | 0.00 | 98 | 1013.0 |
| 20260510074934 | 74 | 288 | 0.0 | 1.0 | 0.00 | 0.01 | 0.00 | 98 | 1013.0 |
| 20260510074440 | 74 | 288 | 0.0 | 3.0 | 0.00 | 0.01 | 0.00 | 98 | 1013.2 |
| 20260510073935 | 74 | 288 | 1.0 | 3.0 | 0.00 | 0.01 | 0.00 | 98 | 1013.2 |
| 20260510073439 | 74 | 282 | 0.0 | 0.0 | 0.00 | 0.01 | 0.00 | 97 | 1013.2 |
| 20260510072935 | 74 | 282 | 0.0 | 0.0 | 0.00 | 0.01 | 0.00 | 97 | 1013.2 |
| 20260510072437 | 74 | 282 | 0.0 | 0.0 | 0.00 | 0.01 | 0.00 | 97 | 1013.2 |
| 20260510071959 | 74 | 282 | 0.0 | 0.0 | 0.00 | 0.01 | 0.00 | 97 | 1013.2 |
| 20260510071435 | 74 | 282 | 0.0 | 0.0 | 0.00 | 0.01 | 0.00 | 97 | 1013.4 |
| 20260510070936 | 74 | 282 | 0.0 | 0.0 | 0.00 | 0.01 | 0.00 | 97 | 1013.4 |
| 20260510070452 | 74 | 282 | 0.0 | 0.0 | 0.00 | 0.01 | 0.00 | 96 | 1013.4 |
| 20260510065949 | 74 | 282 | 0.0 | 0.0 | 0.00 | 0.01 | 0.00 | 96 | 1013.4 |
| 20260510065433 | 74 | 282 | 0.0 | 0.0 | 0.00 | 0.01 | 0.00 | 96 | 1013.4 |
| 20260510064936 | 74 | 282 | 0.0 | 0.0 | 0.00 | 0.01 | 0.00 | 96 | 1013.4 |
| 20260510064438 | 74 | 282 | 0.0 | 0.0 | 0.00 | 0.01 | 0.00 | 96 | 1013.5 |
| 20260510063933 | 74 | 282 | 0.0 | 0.0 | 0.00 | 0.01 | 0.00 | 95 | 1013.5 |
| 20260510063457 | 74 | 282 | 0.0 | 3.0 | 0.00 | 0.01 | 0.00 | 95 | 1013.5 |
| 20260510062953 | 75 | 282 | 0.0 | 3.0 | 0.00 | 0.01 | 0.00 | 95 | 1013.7 |
| 20260510062437 | 75 | 282 | 0.0 | 2.0 | 0.00 | 0.01 | 0.00 | 95 | 1013.7 |
| 20260510061934 | 75 | 282 | 1.0 | 2.0 | 0.00 | 0.01 | 0.00 | 95 | 1013.7 |
| 20260510061433 | 75 | 282 | 1.0 | 2.0 | 0.00 | 0.01 | 0.00 | 95 | 1013.7 |
| 20260510060950 | 75 | 264 | 0.0 | 3.0 | 0.00 | 0.01 | 0.00 | 95 | 1013.7 |
| 20260510060434 | 75 | 264 | 0.0 | 3.0 | 0.00 | 0.01 | 0.00 | 94 | 1013.7 |
| 20260510055952 | 75 | 286 | 0.0 | 3.0 | 0.00 | 0.01 | 0.00 | 94 | 1013.8 |
| 20260510055434 | 75 | 286 | 1.0 | 3.0 | 0.00 | 0.01 | 0.00 | 94 | 1013.8 |
| 20260510054959 | 75 | 260 | 0.0 | 3.0 | 0.00 | 0.01 | 0.00 | 93 | 1013.8 |
| 20260510054434 | 75 | 269 | 2.0 | 3.0 | 0.00 | 0.01 | 0.00 | 93 | 1014.0 |
| 20260510053938 | 75 | 264 | 0.0 | 3.0 | 0.00 | 0.01 | 0.00 | 92 | 1014.0 |
| 20260510053436 | 75 | 264 | 2.0 | 3.0 | 0.00 | 0.01 | 0.00 | 92 | 1014.0 |
| 20260510052940 | 75 | 254 | 1.0 | 3.0 | 0.00 | 0.01 | 0.00 | 92 | 1014.2 |
| 20260510052436 | 75 | 219 | 1.0 | 2.0 | 0.00 | 0.01 | 0.00 | 91 | 1014.2 |
| 20260510051940 | 75 | 219 | 1.0 | 3.0 | 0.00 | 0.01 | 0.00 | 91 | 1014.2 |
| 20260510051450 | 75 | 219 | 1.0 | 3.0 | 0.00 | 0.01 | 0.00 | 91 | 1014.2 |
| 20260510050934 | 75 | 283 | 0.0 | 2.0 | 0.00 | 0.01 | 0.00 | 91 | 1014.2 |
| 20260510050437 | 75 | 283 | 1.0 | 2.0 | 0.00 | 0.01 | 0.00 | 90 | 1014.2 |
| 20260510045939 | 75 | 283 | 0.0 | 0.0 | 0.00 | 0.01 | 0.00 | 89 | 1014.1 |
| 20260510045454 | 75 | 283 | 0.0 | 1.0 | 0.00 | 0.01 | 0.00 | 90 | 1014.1 |
| 20260510044958 | 75 | 283 | 0.0 | 2.0 | 0.00 | 0.01 | 0.00 | 90 | 1014.1 |
| 20260510044434 | 75 | 283 | 1.0 | 2.0 | 0.00 | 0.01 | 0.00 | 90 | 1014.1 |
| 20260510043956 | 75 | 283 | 0.0 | 2.0 | 0.00 | 0.01 | 0.00 | 89 | 1014.1 |
| 20260510043433 | 75 | 283 | 1.0 | 2.0 | 0.00 | 0.01 | 0.00 | 89 | 1014.1 |
| 20260510042936 | 75 | 283 | 0.0 | 0.0 | 0.00 | 0.01 | 0.00 | 89 | 1014.2 |
| 20260510042450 | 75 | 283 | 0.0 | 1.0 | 0.00 | 0.01 | 0.00 | 89 | 1014.2 |
| 20260510042012 | 75 | 283 | 0.0 | 1.0 | 0.00 | 0.01 | 0.00 | 88 | 1014.2 |
| 20260510041433 | 75 | 283 | 0.0 | 1.0 | 0.00 | 0.01 | 0.00 | 88 | 1014.3 |
| 20260510040939 | 75 | 283 | 0.0 | 1.0 | 0.00 | 0.01 | 0.00 | 88 | 1014.3 |
| 20260510040434 | 76 | 283 | 0.0 | 1.0 | 0.00 | 0.01 | 0.00 | 88 | 1014.3 |
| 20260510035938 | 76 | 283 | 0.0 | 1.0 | 0.00 | 0.01 | 0.01 | 88 | 1014.3 |
| 20260510035434 | 76 | 283 | 0.0 | 1.0 | 0.00 | 0.01 | 0.01 | 88 | 1014.3 |
| 20260510034937 | 76 | 283 | 0.0 | 1.0 | 0.00 | 0.01 | 0.01 | 88 | 1014.3 |
| 20260510034433 | 76 | 283 | 0.0 | 0.0 | 0.00 | 0.01 | 0.01 | 88 | 1014.3 |
| 20260510033937 | 76 | 283 | 0.0 | 0.0 | 0.00 | 0.01 | 0.01 | 88 | 1014.3 |
| 20260510033442 | 76 | 283 | 0.0 | 0.0 | 0.00 | 0.01 | 0.01 | 88 | 1014.3 |
| 20260510032944 | 76 | 283 | 0.0 | 1.0 | 0.00 | 0.01 | 0.01 | 88 | 1014.2 |
| 20260510032503 | 76 | 283 | 0.0 | 3.0 | 0.00 | 0.01 | 0.01 | 88 | 1014.2 |
| 20260510031943 | 76 | 283 | 0.0 | 3.0 | 0.00 | 0.01 | 0.01 | 88 | 1014.2 |
| 20260510031448 | 76 | 305 | 1.0 | 3.0 | 0.00 | 0.01 | 0.01 | 87 | 1014.0 |
| 20260510031013 | 76 | 333 | 0.0 | 3.0 | 0.01 | 0.01 | 0.01 | 87 | 1014.0 |
| 20260510030438 | 76 | 357 | 2.0 | 2.0 | 0.01 | 0.01 | 0.01 | 87 | 1014.0 |
| 20260510025954 | 76 | 358 | 0.0 | 0.0 | 0.01 | 0.01 | 0.01 | 87 | 1013.7 |
| 20260510025436 | 76 | 358 | 0.0 | 1.0 | 0.01 | 0.01 | 0.01 | 87 | 1013.7 |
| 20260510024933 | 76 | 358 | 0.0 | 1.0 | 0.01 | 0.01 | 0.01 | 87 | 1013.7 |
| 20260510024437 | 76 | 352 | 0.0 | 0.0 | 0.01 | 0.01 | 0.01 | 87 | 1013.5 |
| 20260510023935 | 76 | 352 | 0.0 | 0.0 | 0.01 | 0.01 | 0.01 | 86 | 1013.5 |
| 20260510023433 | 76 | 352 | 0.0 | 3.0 | 0.01 | 0.01 | 0.01 | 86 | 1013.5 |
| 20260510022935 | 76 | 352 | 1.0 | 3.0 | 0.01 | 0.01 | 0.01 | 85 | 1013.2 |
| 20260510022449 | 77 | 352 | 1.0 | 4.0 | 0.01 | 0.01 | 0.01 | 85 | 1013.2 |
| 20260510021933 | 77 | 338 | 2.0 | 4.0 | 0.01 | 0.01 | 0.01 | 84 | 1013.2 |
| 20260510021437 | 77 | 330 | 1.0 | 3.0 | 0.01 | 0.01 | 0.01 | 84 | 1013.6 |
| 20260510020933 | 77 | 323 | 0.0 | 4.0 | 0.00 | 0.00 | 0.00 | 83 | 1013.6 |
| 20260510020456 | 77 | 323 | 2.0 | 4.0 | 0.00 | 0.00 | 0.00 | 83 | 1013.6 |
| 20260510015939 | 77 | 356 | 0.0 | 3.0 | 0.00 | 0.00 | 0.00 | 82 | 1013.4 |
| 20260510015442 | 77 | 342 | 1.0 | 3.0 | 0.00 | 0.00 | 0.00 | 81 | 1013.4 |
| 20260510014947 | 78 | 356 | 0.0 | 4.0 | 0.00 | 0.00 | 0.00 | 79 | 1013.4 |
| 20260510014432 | 78 | 356 | 1.0 | 4.0 | 0.00 | 0.00 | 0.00 | 79 | 1013.4 |
| 20260510013938 | 79 | 331 | 1.0 | 4.0 | 0.00 | 0.00 | 0.00 | 78 | 1013.4 |
| 20260510013439 | 79 | 324 | 1.0 | 6.0 | 0.00 | 0.00 | 0.00 | 77 | 1013.4 |
| 20260510012945 | 79 | 350 | 2.0 | 10.0 | 0.00 | 0.00 | 0.00 | 75 | 1013.2 |
| 20260510012513 | 80 | 281 | 4.0 | 10.0 | 0.00 | 0.00 | 0.00 | 73 | 1013.2 |
| 20260510011936 | 81 | 305 | 4.0 | 6.0 | 0.00 | 0.00 | 0.00 | 70 | 1013.2 |
| 20260510011433 | 81 | 297 | 3.0 | 5.0 | 0.00 | 0.00 | 0.00 | 67 | 1012.7 |
| 20260510010935 | 82 | 263 | 3.0 | 6.0 | 0.00 | 0.00 | 0.00 | 66 | 1012.7 |
| 20260510010439 | 82 | 273 | 2.0 | 5.0 | 0.00 | 0.00 | 0.00 | 64 | 1012.7 |
| 20260510005942 | 82 | 359 | 2.0 | 11.0 | 0.00 | 0.00 | 0.00 | 64 | 1012.4 |
| 20260510005447 | 82 | 359 | 2.0 | 11.0 | 0.00 | 0.00 | 0.00 | 62 | 1012.4 |
| 20260510004933 | 83 | 341 | 2.0 | 6.0 | 0.00 | 0.00 | 0.00 | 62 | 1012.4 |
| 20260510004457 | 83 | 343 | 2.0 | 14.0 | 0.00 | 0.00 | 0.00 | 61 | 1012.1 |
| 20260510003933 | 83 | 333 | 7.0 | 14.0 | 0.00 | 0.00 | 0.00 | 61 | 1012.1 |
| 20260510003435 | 84 | 339 | 5.0 | 11.0 | 0.00 | 0.00 | 0.00 | 62 | 1012.1 |
| 20260510003009 | 84 | 311 | 2.0 | 4.0 | 0.00 | 0.00 | 0.00 | 66 | 1011.7 |
| 20260510002434 | 83 | 340 | 0.0 | 10.0 | 0.00 | 0.00 | 0.00 | 67 | 1011.7 |
| 20260510001939 | 83 | 301 | 5.0 | 10.0 | 0.00 | 0.00 | 0.00 | 67 | 1011.7 |
| 20260510001454 | 83 | 264 | 2.0 | 7.0 | 0.00 | 0.00 | 0.00 | 65 | 1011.1 |
| 20260510000936 | 83 | 157 | 3.0 | 7.0 | 0.00 | 0.00 | 0.00 | 66 | 1011.1 |
| 20260510000440 | 83 | 182 | 2.0 | 6.0 | 0.00 | 0.00 | 0.00 | 67 | 1011.1 |
| 20260509235944 | 83 | 192 | 2.0 | 5.0 | 0.00 | 0.00 | 0.00 | 68 | 1010.7 |
| 20260509235440 | 84 | 179 | 0.0 | 7.0 | 0.00 | 0.00 | 0.00 | 69 | 1010.7 |
| 20260509234957 | 84 | 165 | 1.0 | 9.0 | 0.00 | 0.00 | 0.00 | 69 | 1010.7 |
| 20260509234438 | 84 | 153 | 2.0 | 9.0 | 0.00 | 0.00 | 0.00 | 69 | 1010.7 |
| 20260509233936 | 84 | 146 | 2.0 | 9.0 | 0.00 | 0.00 | 0.00 | 68 | 1010.7 |
| 20260509233455 | 84 | 89 | 1.0 | 6.0 | 0.00 | 0.00 | 0.00 | 68 | 1010.7 |
| 20260509232951 | 84 | 127 | 1.0 | 7.0 | 0.00 | 0.00 | 0.00 | 68 | 1010.5 |
| 20260509232434 | 84 | 126 | 2.0 | 7.0 | 0.00 | 0.00 | 0.00 | 68 | 1010.5 |
| 20260509231958 | 85 | 124 | 2.0 | 7.0 | 0.00 | 0.00 | 0.00 | 67 | 1010.5 |
| 20260509231441 | 85 | 161 | 3.0 | 7.0 | 0.00 | 0.00 | 0.00 | 66 | 1010.6 |
| 20260509231003 | 85 | 164 | 3.0 | 10.0 | 0.00 | 0.00 | 0.00 | 65 | 1010.6 |
| 20260509230450 | 86 | 136 | 2.0 | 11.0 | 0.00 | 0.00 | 0.00 | 64 | 1010.6 |
| 20260509225932 | 86 | 205 | 5.0 | 11.0 | 0.00 | 0.00 | 0.00 | 63 | 1010.6 |
| 20260509225435 | 86 | 136 | 2.0 | 9.0 | 0.00 | 0.00 | 0.00 | 62 | 1010.6 |
| 20260509224938 | 86 | 158 | 3.0 | 9.0 | 0.00 | 0.00 | 0.00 | 62 | 1010.6 |
| 20260509224435 | 86 | 187 | 2.0 | 9.0 | 0.00 | 0.00 | 0.00 | 63 | 1010.6 |
| 20260509223953 | 87 | 186 | 4.0 | 11.0 | 0.00 | 0.00 | 0.00 | 61 | 1010.6 |
| 20260509223434 | 87 | 198 | 3.0 | 11.0 | 0.00 | 0.00 | 0.00 | 61 | 1010.6 |
| 20260509222939 | 88 | 211 | 2.0 | 8.0 | 0.00 | 0.00 | 0.00 | 62 | 1010.6 |
| 20260509222444 | 88 | 127 | 3.0 | 8.0 | 0.00 | 0.00 | 0.00 | 61 | 1010.6 |
| 20260509221947 | 88 | 142 | 1.0 | 7.0 | 0.00 | 0.00 | 0.00 | 61 | 1010.6 |
| 20260509221432 | 88 | 153 | 3.0 | 8.0 | 0.00 | 0.00 | 0.00 | 60 | 1010.6 |
| 20260509220938 | 89 | 162 | 4.0 | 8.0 | 0.00 | 0.00 | 0.00 | 59 | 1010.6 |
| 20260509220501 | 90 | 106 | 2.0 | 8.0 | 0.00 | 0.00 | 0.00 | 59 | 1010.6 |
| 20260509215935 | 90 | 197 | 2.0 | 12.0 | 0.00 | 0.00 | 0.00 | 59 | 1010.6 |
| 20260509215438 | 90 | 80 | 3.0 | 12.0 | 0.00 | 0.00 | 0.00 | 58 | 1010.6 |
| 20260509214936 | 90 | 84 | 2.0 | 11.0 | 0.00 | 0.00 | 0.00 | 57 | 1010.6 |
| 20260509214450 | 90 | 96 | 3.0 | 11.0 | 0.00 | 0.00 | 0.00 | 57 | 1010.6 |
| 20260509213932 | 90 | 123 | 2.0 | 12.0 | 0.00 | 0.00 | 0.00 | 57 | 1010.6 |
| 20260509213436 | 91 | 131 | 3.0 | 12.0 | 0.00 | 0.00 | 0.00 | 57 | 1010.6 |
| 20260509212939 | 91 | 157 | 4.0 | 12.0 | 0.00 | 0.00 | 0.00 | 56 | 1010.6 |
| 20260509212440 | 91 | 98 | 4.0 | 9.0 | 0.00 | 0.00 | 0.00 | 55 | 1010.6 |
| 20260509211934 | 91 | 188 | 1.0 | 10.0 | 0.00 | 0.00 | 0.00 | 56 | 1010.6 |
| 20260509211437 | 91 | 75 | 3.0 | 10.0 | 0.00 | 0.00 | 0.00 | 54 | 1010.6 |
| 20260509210940 | 92 | 141 | 4.0 | 7.0 | 0.00 | 0.00 | 0.00 | 53 | 1010.6 |
| 20260509210444 | 92 | 162 | 0.0 | 7.0 | 0.00 | 0.00 | 0.00 | 55 | 1010.6 |
| 20260509205947 | 91 | 95 | 3.0 | 10.0 | 0.00 | 0.00 | 0.00 | 55 | 1010.6 |
| 20260509205508 | 92 | 114 | 4.0 | 10.0 | 0.00 | 0.00 | 0.00 | 53 | 1010.6 |
| 20260509204953 | 93 | 167 | 1.0 | 11.0 | 0.00 | 0.00 | 0.00 | 53 | 1010.6 |
| 20260509204437 | 93 | 77 | 4.0 | 11.0 | 0.00 | 0.00 | 0.00 | 52 | 1010.7 |
| 20260509203932 | 93 | 96 | 2.0 | 10.0 | 0.00 | 0.00 | 0.00 | 50 | 1010.7 |
| 20260509203435 | 93 | 105 | 1.0 | 6.0 | 0.00 | 0.00 | 0.00 | 50 | 1010.7 |
| 20260509202954 | 93 | 195 | 2.0 | 14.0 | 0.00 | 0.00 | 0.00 | 49 | 1010.9 |
| 20260509202437 | 93 | 113 | 4.0 | 14.0 | 0.00 | 0.00 | 0.00 | 49 | 1010.9 |
| 20260509201942 | 93 | 163 | 3.0 | 8.0 | 0.00 | 0.00 | 0.00 | 48 | 1010.9 |
| 20260509201506 | 94 | 62 | 2.0 | 9.0 | 0.00 | 0.00 | 0.00 | 47 | 1011.0 |
| 20260509200929 | 94 | 110 | 3.0 | 10.0 | 0.00 | 0.00 | 0.00 | 48 | 1011.0 |
| 20260509200453 | 93 | 124 | 6.0 | 10.0 | 0.00 | 0.00 | 0.00 | 47 | 1011.0 |
| 20260509200010 | 93 | 148 | 2.0 | 10.0 | 0.00 | 0.00 | 0.00 | 48 | 1011.2 |
| 20260509193936 | 95 | 176 | 4.0 | 11.0 | 0.00 | 0.00 | 0.00 | 31 | 1011.4 |
| 20260509193437 | 97 | 139 | 3.0 | 11.0 | 0.00 | 0.00 | 0.00 | 41 | 1011.4 |
| 20260509192942 | 97 | 144 | 2.0 | 11.0 | 0.00 | 0.00 | 0.00 | 26 | 1011.5 |
| 20260509192453 | 98 | 168 | 2.0 | 6.0 | 0.00 | 0.00 | 0.00 | 27 | 1011.5 |
| 20260509191949 | 98 | 193 | 4.0 | 9.0 | 0.00 | 0.00 | 0.00 | 25 | 1011.5 |
| 20260509191432 | 98 | 233 | 5.0 | 13.0 | 0.00 | 0.00 | 0.00 | 26 | 1011.7 |
| 20260509190950 | 99 | 221 | 6.0 | 13.0 | 0.00 | 0.00 | 0.00 | 25 | 1011.7 |
| 20260509190433 | 98 | 276 | 4.0 | 10.0 | 0.00 | 0.00 | 0.00 | 26 | 1011.7 |
| 20260509185937 | 99 | 177 | 4.0 | 12.0 | 0.00 | 0.00 | 0.00 | 26 | 1011.7 |
| 20260509185435 | 98 | 212 | 4.0 | 12.0 | 0.00 | 0.00 | 0.00 | 26 | 1011.7 |
| 20260509184936 | 99 | 214 | 5.0 | 9.0 | 0.00 | 0.00 | 0.00 | 27 | 1011.7 |
| 20260509184433 | 98 | 257 | 3.0 | 9.0 | 0.00 | 0.00 | 0.00 | 27 | 1011.7 |
| 20260509183937 | 98 | 226 | 5.0 | 12.0 | 0.00 | 0.00 | 0.00 | 27 | 1011.7 |
| 20260509183454 | 98 | 234 | 5.0 | 13.0 | 0.00 | 0.00 | 0.00 | 27 | 1011.7 |
| 20260509182936 | 99 | 244 | 7.0 | 16.0 | 0.00 | 0.00 | 0.00 | 27 | 1011.7 |
| 20260509182441 | 99 | 191 | 7.0 | 16.0 | 0.00 | 0.00 | 0.00 | 28 | 1011.7 |
| 20260509181933 | 98 | 255 | 3.0 | 11.0 | 0.00 | 0.00 | 0.00 | 28 | 1011.7 |
| 20260509181439 | 98 | 230 | 3.0 | 11.0 | 0.00 | 0.00 | 0.00 | 28 | 1011.8 |
| 20260509180942 | 97 | 215 | 5.0 | 15.0 | 0.00 | 0.00 | 0.00 | 28 | 1011.8 |
| 20260509180447 | 97 | 254 | 6.0 | 15.0 | 0.00 | 0.00 | 0.00 | 28 | 1011.8 |
| 20260509175933 | 97 | 220 | 6.0 | 11.0 | 0.00 | 0.00 | 0.00 | 28 | 1012.1 |
| 20260509175437 | 97 | 243 | 4.0 | 10.0 | 0.00 | 0.00 | 0.00 | 34 | 1012.1 |
| 20260509174933 | 97 | 168 | 6.0 | 15.0 | 0.00 | 0.00 | 0.00 | 28 | 1012.1 |
| 20260509174434 | 96 | 250 | 7.0 | 15.0 | 0.00 | 0.00 | 0.00 | 30 | 1012.1 |
| 20260509173959 | 96 | 207 | 6.0 | 14.0 | 0.00 | 0.00 | 0.00 | 30 | 1012.1 |
| 20260509173434 | 96 | 235 | 5.0 | 11.0 | 0.00 | 0.00 | 0.00 | 31 | 1012.1 |
| 20260509172939 | 96 | 161 | 5.0 | 13.0 | 0.00 | 0.00 | 0.00 | 32 | 1012.2 |
| 20260509172435 | 95 | 242 | 4.0 | 13.0 | 0.00 | 0.00 | 0.00 | 31 | 1012.2 |
| 20260509171936 | 95 | 218 | 5.0 | 11.0 | 0.00 | 0.00 | 0.00 | 33 | 1012.2 |
| 20260509171509 | 95 | 219 | 5.0 | 14.0 | 0.00 | 0.00 | 0.00 | 33 | 1012.2 |
| 20260509170932 | 95 | 240 | 4.0 | 14.0 | 0.00 | 0.00 | 0.00 | 33 | 1012.2 |
| 20260509170436 | 95 | 242 | 4.0 | 13.0 | 0.00 | 0.00 | 0.00 | 34 | 1012.2 |
| 20260509165932 | 94 | 237 | 5.0 | 13.0 | 0.00 | 0.00 | 0.00 | 35 | 1012.6 |
| 20260509165437 | 95 | 162 | 5.0 | 11.0 | 0.00 | 0.00 | 0.00 | 35 | 1012.6 |
| 20260509164934 | 95 | 231 | 4.0 | 11.0 | 0.00 | 0.00 | 0.00 | 36 | 1012.6 |
| 20260509164457 | 94 | 139 | 2.0 | 11.0 | 0.00 | 0.00 | 0.00 | 37 | 1012.8 |
| 20260509163934 | 94 | 202 | 2.0 | 9.0 | 0.00 | 0.00 | 0.00 | 37 | 1012.8 |
| 20260509163438 | 93 | 259 | 5.0 | 10.0 | 0.00 | 0.00 | 0.00 | 38 | 1012.8 |
| 20260509162955 | 93 | 231 | 4.0 | 13.0 | 0.00 | 0.00 | 0.00 | 40 | 1012.8 |
| 20260509162435 | 92 | 186 | 4.0 | 13.0 | 0.00 | 0.00 | 0.00 | 40 | 1012.8 |
| 20260509161956 | 92 | 255 | 5.0 | 10.0 | 0.00 | 0.00 | 0.00 | 38 | 1012.8 |
| 20260509161439 | 92 | 254 | 5.0 | 11.0 | 0.00 | 0.00 | 0.00 | 40 | 1013.1 |
| 20260509160936 | 91 | 243 | 3.0 | 14.0 | 0.00 | 0.00 | 0.00 | 40 | 1013.1 |
| 20260509160437 | 91 | 189 | 5.0 | 15.0 | 0.00 | 0.00 | 0.00 | 41 | 1013.1 |
| 20260509155933 | 91 | 216 | 4.0 | 13.0 | 0.00 | 0.00 | 0.00 | 41 | 1013.3 |
| 20260509155436 | 90 | 241 | 6.0 | 12.0 | 0.00 | 0.00 | 0.00 | 42 | 1013.3 |
| 20260509154940 | 90 | 191 | 4.0 | 12.0 | 0.00 | 0.00 | 0.00 | 41 | 1013.3 |
| 20260509154434 | 90 | 170 | 5.0 | 11.0 | 0.00 | 0.00 | 0.00 | 41 | 1013.3 |
| 20260509153938 | 90 | 207 | 5.0 | 10.0 | 0.00 | 0.00 | 0.00 | 42 | 1013.3 |
| 20260509153452 | 89 | 147 | 5.0 | 10.0 | 0.00 | 0.00 | 0.00 | 45 | 1013.3 |
| 20260509152935 | 89 | 222 | 3.0 | 12.0 | 0.00 | 0.00 | 0.00 | 46 | 1013.7 |
| 20260509152451 | 88 | 136 | 6.0 | 12.0 | 0.00 | 0.00 | 0.00 | 45 | 1013.7 |
| 20260509151936 | 88 | 229 | 7.0 | 11.0 | 0.00 | 0.00 | 0.00 | 47 | 1013.7 |